GW3950 Weather Reports


Display with metric or nautical units.
time (UTC)temp
F
wind
direction
speed
MPH
gust
MPH
rain 1hr
in
rain 24hr
in
rain mn
in
humidity
%
barometer
mb
20260505210844 88 323 6.0 14.0 0.00 0.00 0.00 43 1001.9
20260505205858 89 346 7.0 12.0 0.00 0.00 0.00 44 1001.9
20260505204842 91 323 5.0 12.0 0.00 0.00 0.00 42 1001.9
20260505203857 90 277 6.0 10.0 0.00 0.00 0.00 44 1001.9
20260505202839 90 252 4.0 10.0 0.00 0.00 0.00 46 1001.9
20260505201903 89 267 4.0 10.0 0.00 0.00 0.00 47 1001.9
20260505200835 89 196 4.0 11.0 0.00 0.00 0.00 50 1001.9
20260505195820 89 293 5.0 12.0 0.00 0.00 0.00 50 1002.2
20260505194825 89 231 6.0 12.0 0.00 0.00 0.00 52 1002.3
20260505192633 88 240 7.0 15.0 0.00 0.00 0.00 53 1002.2
20260505191627 88 227 7.0 15.0 0.00 0.00 0.00 52 1002.3
20260505190557 87 194 6.0 14.0 0.00 0.00 0.00 53 1002.0
20260505185615 87 222 6.0 19.0 0.00 0.00 0.00 56 1002.0
20260505183428 85 213 8.0 16.0 0.00 0.00 0.00 59 1002.0
20260505182416 85 180 9.0 16.0 0.00 0.00 0.00 61 1002.2
20260505181437 84 200 8.0 15.0 0.00 0.00 0.00 61 1002.2
20260505180403 84 190 7.0 17.0 0.00 0.00 0.00 61 1002.3
20260505175332 84 195 8.0 20.0 0.00 0.00 0.00 61 1002.2
20260505174323 83 192 9.0 20.0 0.00 0.00 0.00 66 1002.3
20260505173334 83 209 9.0 17.0 0.00 0.00 0.00 65 1002.2
20260505171209 83 195 8.0 16.0 0.00 0.00 0.00 64 1002.5
20260505170140 83 194 8.0 15.0 0.00 0.00 0.00 65 1002.3
20260505165123 82 184 9.0 16.0 0.00 0.00 0.00 65 1002.5
20260505164126 82 207 9.0 18.0 0.00 0.00 0.00 65 1002.4
20260505163108 82 218 8.0 18.0 0.00 0.00 0.00 68 1002.3
20260505162109 80 183 8.0 15.0 0.00 0.00 0.00 71 1002.2
20260505161126 79 210 9.0 15.0 0.00 0.00 0.00 72 1002.2
20260505160151 78 202 9.0 21.0 0.00 0.00 0.00 73 1002.0
20260505153054 76 226 9.0 17.0 0.00 0.00 0.00 77 1001.7
20260505152119 75 214 11.0 19.0 0.00 0.00 0.00 78 1001.9
20260505151044 74 213 10.0 21.0 0.00 0.00 0.00 78 1001.9
20260505125002 70 173 9.0 19.0 0.00 0.00 0.00 83 1001.7
20260505123934 70 197 10.0 19.0 0.00 0.00 0.00 84 1001.6
20260505122945 70 178 10.0 19.0 0.00 0.00 0.00 84 1001.3
20260505115606 69 202 10.0 17.0 0.00 0.00 0.00 83 1001.1
20260505114623 70 157 10.0 20.0 0.00 0.00 0.00 83 1000.9
20260505112422 70 225 11.0 21.0 0.00 0.00 0.00 83 1000.8
20260505111441 70 187 10.0 20.0 0.00 0.00 0.00 83 1000.7
20260505110437 70 208 10.0 22.0 0.00 0.00 0.00 83 1000.8
20260505101350 70 187 11.0 21.0 0.00 0.00 0.00 81 1000.7
20260505100330 70 161 10.0 17.0 0.00 0.00 0.00 81 1000.7
20260505095347 70 180 10.0 16.0 0.00 0.00 0.00 81 1000.7
20260505094400 70 173 11.0 23.0 0.00 0.00 0.00 81 1000.8
20260505093414 70 219 12.0 24.0 0.00 0.00 0.00 81 1000.9
20260505092356 71 169 10.0 24.0 0.00 0.00 0.00 80 1000.9
20260505091357 71 174 10.0 23.0 0.00 0.00 0.00 79 1001.1
20260505090330 71 199 10.0 23.0 0.00 0.00 0.00 79 1001.1
20260505085315 71 177 11.0 20.0 0.00 0.00 0.00 78 1001.3
20260505082032 72 197 9.0 21.0 0.00 0.00 0.00 77 1001.4
20260505081016 72 180 10.0 21.0 0.00 0.00 0.00 77 1001.4
20260505075950 72 161 10.0 17.0 0.00 0.00 0.00 77 1001.4
20260505075013 72 180 8.0 17.0 0.00 0.00 0.00 76 1001.5
20260505074012 72 178 8.0 15.0 0.00 0.00 0.00 76 1001.6
20260505072943 73 152 6.0 14.0 0.00 0.00 0.00 75 1001.8
20260505071924 73 167 8.0 20.0 0.00 0.00 0.00 74 1002.0
20260505070912 73 169 10.0 20.0 0.00 0.00 0.00 74 1002.2
20260505065907 73 167 9.0 19.0 0.00 0.00 0.00 73 1002.4
20260505064925 73 173 11.0 18.0 0.00 0.00 0.00 73 1002.6
20260505063948 73 170 9.0 18.0 0.00 0.00 0.00 73 1002.8
20260505062915 73 177 9.0 16.0 0.00 0.00 0.00 73 1002.8
20260505061841 73 171 9.0 16.0 0.00 0.00 0.00 74 1002.9
20260505060812 73 167 9.0 18.0 0.00 0.00 0.00 74 1002.8
20260505055820 73 167 8.0 18.0 0.00 0.00 0.00 74 1003.0
20260505054800 73 192 8.0 17.0 0.00 0.00 0.00 74 1002.9
20260505053813 73 170 9.0 17.0 0.00 0.00 0.00 74 1002.9
20260505052746 74 164 10.0 21.0 0.00 0.00 0.00 73 1002.9
20260505051733 74 152 11.0 21.0 0.00 0.00 0.00 73 1002.8
20260505050748 74 153 10.0 18.0 0.00 0.00 0.00 72 1002.8
20260505034418 73 171 8.0 13.0 0.00 0.00 0.00 74 1003.3
20260505033347 73 163 8.0 15.0 0.00 0.00 0.00 74 1003.2
20260505032335 73 140 8.0 15.0 0.00 0.00 0.00 74 1003.0
20260505031330 73 171 8.0 14.0 0.00 0.00 0.00 75 1003.0
20260505030330 73 158 8.0 15.0 0.00 0.00 0.00 75 1002.9
20260505025306 73 155 8.0 15.0 0.00 0.00 0.00 75 1002.9
20260505024301 73 161 7.0 12.0 0.00 0.00 0.00 75 1003.0
20260505023232 73 165 7.0 16.0 0.00 0.00 0.00 74 1003.2
20260505021101 73 171 8.0 14.0 0.00 0.00 0.00 74 1003.1
20260505015106 74 150 7.0 13.0 0.00 0.00 0.00 73 1002.8
20260505014125 74 147 6.0 11.0 0.00 0.00 0.00 72 1003.0
20260505013056 75 130 5.0 11.0 0.00 0.00 0.00 71 1003.0
20260505012119 75 150 5.0 15.0 0.00 0.00 0.00 69 1003.1
20260505011048 76 148 8.0 15.0 0.00 0.00 0.00 68 1002.9
20260505010027 76 146 6.0 12.0 0.00 0.00 0.00 68 1003.0
20260505005049 76 179 7.0 15.0 0.00 0.00 0.00 67 1002.9
20260505004030 77 190 7.0 15.0 0.00 0.00 0.00 67 1003.0
20260505001907 77 189 8.0 15.0 0.00 0.00 0.00 66 1003.1
20260505000915 78 150 9.0 18.0 0.00 0.00 0.00 65 1003.1
20260504235847 78 184 12.0 24.0 0.00 0.00 0.00 63 1003.2
20260504233739 79 126 11.0 22.0 0.00 0.00 0.00 64 1003.6
20260504232728 79 175 11.0 19.0 0.00 0.00 0.00 64 1003.6
20260504230657 79 177 11.0 25.0 0.00 0.00 0.00 63 1003.7
20260504225715 79 188 12.0 25.0 0.00 0.00 0.00 63 1003.7
20260504224642 80 163 12.0 19.0 0.00 0.00 0.00 63 1003.8
20260504222602 80 190 12.0 25.0 0.00 0.00 0.00 60 1003.9
20260504221626 80 140 11.0 21.0 0.00 0.00 0.00 61 1003.9
20260504220625 80 182 12.0 21.0 0.00 0.00 0.00 61 1003.8
20260504215558 80 147 12.0 21.0 0.00 0.00 0.00 61 1004.0
20260504214526 81 194 12.0 21.0 0.00 0.00 0.00 60 1004.2
20260504213517 82 163 12.0 21.0 0.00 0.00 0.00 59 1004.3